Regional Weather Roundup
Issued by NWS Newport/Morehead, NC

Current Version | Previous Version | Graphics & Text | Print | Product List | Glossary Off
Versions: 1 2 3 4 5 6 7 8 9 10 11 12 13 14 15 16 17 18 19 20 21 22 23 24 25 26 27 28 29 30 31 32 33 34 35 36 37 38 39 40 41 42 43 44 45 46 47 48 49 50
000 ASUS42 KMHX 200713 RWRMHX WEATHER ROUNDUP FOR EASTERN NORTH CAROLINA NATIONAL WEATHER SERVICE NEWPORT/MOREHEAD CITY NC 300 AM EDT SUN MAY 20 2018 NOTE: "FAIR" INDICATES FEW OR NO CLOUDS BELOW 12,000 FEET WITH NO SIGNIFICANT WEATHER AND/OR OBSTRUCTIONS TO VISIBILITY NCZ015>017-031-032-045>047-102-103-200800- NORTH COAST CITY SKY/WX TMP DP RH WIND PRES REMARKS EDENTON NOT AVBL ELIZABETH CITY FAIR 75 72 90 S13G22 30.13F KITTY HAWK PTSUNNY 74 70 87 SW7 30.14F MANTEO FAIR 74 70 87 SW20 30.15F $$ NCZ045>047-081-094-103-104-200800- CENTRAL COAST CITY SKY/WX TMP DP RH WIND PRES REMARKS FRISCO CLOUDY 73 70 90 SW8 30.17F $$ NCZ095-097-098-100-101-200800- SOUTHERN COAST CITY SKY/WX TMP DP RH WIND PRES REMARKS BEAUFORT MOCLDY 74 72 93 S9 30.16F CEDAR ISLAND NOT AVBL JACKSONVILLE FAIR 74 73 97 S6 30.14S PINEY ISLAND NOT AVBL WILMINGTON FAIR 74 70 87 S6 30.14S $$ NCZ011>013-027>030-043-044-078>080-089-090>093-098-200800- COASTAL PLAIN CITY SKY/WX TMP DP RH WIND PRES REMARKS AHOSKIE LGT RAIN 69 69 100 S3 30.13F CLINTON CLOUDY 69 69 100 CALM 30.14F ELIZABETHTOWN CLOUDY 68 68 98 CALM 30.14S GOLDSBORO MOCLDY N/A N/A N/A CALM 30.13F GREENVILLE FAIR 72 72 100 S5 30.15S HAVELOCK NOT AVBL KENANSVILLE CLOUDY 70 70 100 CALM 30.14F FOG KINSTON CLOUDY 71 71 98 SW6 30.15S NEW BERN FAIR 72 71 97 S9 30.16S RICHLANDS CLOUDY 73 72 96 S6 30.15S ROCKY MOUNT CLOUDY 70 69 97 S6 30.12F WASHINGTON CLOUDY 73 71 95 CALM 30.14F WHITEVILLE FAIR 69 68 97 CALM 30.13S $$ AMZ130-135-150-152-154-156-158-170-250-252-270-ANZ085-086-088-633-658-670-200800- MARINE OBSERVATIONS STATION/POSITION TIME TEMP WIND PRES WAVE SWELL AIR SEA DIR/SP/G HT/PER HT/PER (UTC) (F) (DEG/KT/KT) (MB) (FT/S) (FT/S) CHESAPEAKE LIGHT NOT AVBL 64 E VA BEACH 0650 65 62 200/ 10/ 10 1021.5 6/ 7 5/ 7 DUCK 0648 75 60 190/ 14/ 19 1020.1 2 E DUCK 0700 62 N/A 4/ 8 OREGON INLET 0642 75 76 200/ 21/ 24 1021.1 13E OREGON INLT 0648 65 N/A 5/ 6 2/14 HATTERAS CG 0648 74 75 210/ 8/ 11 1021.4 DIAMOND BUOY 0700 77 75 190/ 17/ 23 1021.9 CAPE LOOKOUT 0700 190/ 11/ 12 1021.8 BEAUFORT LAB 0648 75 76 200/ 9/ 12 1021.7 30 SE NEW RVR IN 0608 76 180/ 12/ 17 1021.1 30 SE NEW RVR IN 0700 76 N/A 8/ 8 2/14 27 SE WRIGHTSVLE 0608 74 73 190/ 12/ 17 1021.3 5 SE WRIGHTSVLE NOT AVBL 225 S CAPE HAT 0700 76 160/ 16/ 19 1022.5 41 SE CHARLESTON 0650 74 250/ 6/ 8 1019.8 7/ 9 7/ 9 $$

USA.gov is the U.S. government's official web portal to all federal, state and local government web resources and services.